{"data":{"norad_id":36111,"intl_designator":"2009-070A","name":"COSMOS 2456 (730)","alt_names":[],"object_type":"PAYLOAD","status":"ACTIVE","operator":null,"country":"CIS","launch_date":"2009-12-14","launch_site_code":"TYMSC","launch_vehicle":null,"mission":null,"orbit_class":"UNKNOWN","rcs_meters":5.0119,"size_class":null,"mass_kg":null,"dimensions":null,"purposes":["nav"],"wikipedia_slug":null,"has_3d_model":false,"image_url":null,"decayed_at":null,"tle_current":{"epoch":"2026-05-24T02:46:33.055968Z","epoch_age_seconds":155437,"freshness":"FRESH","line1":"1 36111U 09070A   26144.11566037 -.00000034  00000+0  00000+0 0  9990","line2":"2 36111  64.9981  71.7925 0005494 323.9681 185.3764  2.13103527127914","mean_motion":2.13103527,"eccentricity":0.0005494,"inclination_deg":64.9981,"raan_deg":71.7925,"arg_perigee_deg":323.9681,"mean_anomaly_deg":185.3764,"bstar":0,"rev_number":12791,"period_min":675.72790571411,"perigee_km":19115.751533345,"apogee_km":19143.779616695,"semimajor_km":25507.90257502,"source":"CELESTRAK","updated_at":"2026-05-25T13:38:23.890150Z"}}}